Trenton, NJ

10:03 AM EST on January 20, 2017 (GMT -0500)
Trenton

Weather History for KTTN - October, 2010

Change the Weather History Date:

Sunday, October 17, 2010

  Actual Average Record
Temperature  
Mean Temperature 55 °F 54 °F  
Max Temperature 71 °F 65 °F 87 °F (1938)
Min Temperature 39 °F 43 °F 32 °F (1992)
Degree Days  
Heating Degree Days 10 11  
Month to date heating degree days 121 147  
Since 1 July heating degree days 125 212  
Cooling Degree Days 0 0  
Month to date cooling degree days 1 7  
Year to date cooling degree days 1536 962  
Growing Degree Days 4 (Base 50)    
Moisture  
Dew Point 40 °F    
Average Humidity 61    
Maximum Humidity 85    
Minimum Humidity 37    
Precipitation  
Precipitation 0.00 in 0.12 in 1.43 in (1942)
Month to date precipitation 4.31 2.36  
Year to date precipitation 32.46 37.61  
Sea Level Pressure  
Sea Level Pressure 29.88 in    
Wind  
Wind Speed 5 mph (WNW)    
Max Wind Speed 17 mph    
Max Gust Speed 24 mph    
Visibility 10 miles    
Events      
T = Trace of Precipitation, MM = Missing Value Source: NWS Daily Summary

Daily Weather History Graph

Daily Weather History Graph

Search for Another Location

Airport or City:

Trip Planner

Search our weather history database for the weather conditions in past years. The results will help you decide how hot, cold, wet, or windy it might be!

Date:

Astronomy

Oct. 17, 2010 Rise Set
Actual Time 7:12 AM EDT 6:16 PM EDT
Civil Twilight 6:44 AM EDT 6:43 PM EDT
Nautical Twilight 6:12 AM EDT 7:15 PM EDT
Astronomical Twilight 5:41 AM EDT 7:46 PM EDT
Moon 3:35 PM EDT (10/17) 2:00 AM EDT (10/17)
Length of Visible Light 11h 59m
Length of Day
11h 04m
Waxing Gibbous, 75% of the Moon is Illuminated
Oct 17
Waxing Gibbous
Oct 22
Full
Oct 30
Last Quarter
Nov 6
New
Nov 13
First Quarter

Hourly Weather History & Observations

Time (EDT) Temp. Windchill Dew Point Humidity Pressure Visibility Wind Dir Wind Speed Gust Speed Precip Events Conditions
12:53 AM 42.1 °F - 35.1 °F 76% 29.96 in 10.0 mi Calm Calm - N/A   Clear
1:53 AM 41.0 °F - 35.1 °F 79% 29.97 in 10.0 mi Calm Calm - N/A   Clear
2:53 AM 39.9 °F - 35.1 °F 83% 29.96 in 10.0 mi Calm Calm - N/A   Clear
3:53 AM 41.0 °F - 34.0 °F 76% 29.95 in 10.0 mi Calm Calm - N/A   Clear
4:53 AM 42.1 °F 40.2 °F 34.0 °F 73% 29.95 in 10.0 mi NW 3.5 mph - N/A   Clear
6:53 AM 45.0 °F 43.5 °F 34.0 °F 65% 29.94 in 10.0 mi NW 3.5 mph - N/A   Clear
7:53 AM 41.0 °F - 36.0 °F 82% 29.94 in 10.0 mi Calm Calm - N/A   Clear
8:53 AM 51.1 °F - 37.0 °F 59% 29.95 in 10.0 mi WNW 6.9 mph - N/A   Clear
9:53 AM 57.0 °F - 39.9 °F 53% 29.92 in 10.0 mi West 9.2 mph - N/A   Clear
10:53 AM 61.0 °F - 42.1 °F 50% 29.90 in 10.0 mi West 8.1 mph - N/A   Clear
11:53 AM 64.9 °F - 42.1 °F 43% 29.88 in 10.0 mi WNW 9.2 mph - N/A   Clear
12:53 PM 66.9 °F - 42.1 °F 40% 29.84 in 10.0 mi WNW 8.1 mph 16.1 mph N/A   Clear
1:53 PM 69.1 °F - 43.0 °F 39% 29.80 in 10.0 mi West 8.1 mph - N/A   Clear
2:53 PM 70.0 °F - 42.1 °F 36% 29.79 in 10.0 mi WNW 15.0 mph 20.7 mph N/A   Clear
3:53 PM 70.0 °F - 42.1 °F 36% 29.79 in 10.0 mi West 13.8 mph 23.0 mph N/A   Clear
4:53 PM 70.0 °F - 43.0 °F 38% 29.79 in 10.0 mi WNW 10.4 mph - N/A   Clear
5:53 PM 68.0 °F - 41.0 °F 37% 29.80 in 10.0 mi NW 4.6 mph - N/A   Partly Cloudy
6:53 PM 63.0 °F - 43.0 °F 48% 29.81 in 10.0 mi Calm Calm - N/A   Clear
7:53 PM 60.1 °F - 42.1 °F 51% 29.82 in 10.0 mi Calm Calm - N/A   Clear
8:53 PM 59.0 °F - 43.0 °F 55% 29.83 in 10.0 mi WNW 3.5 mph - N/A   Clear
9:53 PM 55.9 °F - 42.1 °F 60% 29.87 in 10.0 mi North 5.8 mph - N/A   Clear
10:53 PM 54.0 °F - 42.1 °F 64% 29.89 in 10.0 mi Calm Calm - N/A   Clear
11:53 PM 52.0 °F - 41.0 °F 66% 29.90 in 10.0 mi North 3.5 mph - N/A   Clear